Regional Weather Roundup
Issued by NWS Green Bay, WI

Home | Current Version | Previous Version | Text Only | Print | Product List | Glossary On
Versions: 1 2 3 4 5 6 7 8 9 10 11 12 13 14 15 16 17 18 19 20 21 22 23 24 25 26 27 28 29 30 31 32 33 34 35 36 37 38 39 40 41 42 43 44 45 46 47 48 49 50
000
ASUS43 KGRB 232010
RWRGRB

NORTH-CENTRAL AND NORTHEAST WISCONSIN REGIONAL WEATHER ROUNDUP
NATIONAL WEATHER SERVICE GREEN BAY WI
300 PM CDT THU OCT 23 2014

WIZ005-009-010>012-018-019-232100-
NORTH CENTRAL WISCONSIN

CITY           SKY/WX    TMP DP  RH WIND       PRES   REMARKS
IRONWOOD       CLOUDY    48  46  93 S6        29.95S
MANITOWISH WTR CLOUDY    44  44 100 S6        29.99S FOG
ARBOR VITAE    CLOUDY    45  43  95 S6        30.00S FOG
EAGLE RIVER    LGT RAIN  44  44 100 SW6       30.01R
LAND O LAKES   CLOUDY    45  44  95 S7        30.00F
RHINELANDER    LGT RAIN  44  43  96 S6        30.02S FOG
PHILLIPS       CLOUDY    46  45  97 SW5       30.00S
ANTIGO         DRIZZLE   42  42  99 S7        30.03S
TOMAHAWK       CLOUDY    44  43  96 CALM      30.02S FOG
MERRILL        CLOUDY    46  45  97 S3        30.02S
$$

WIZ013-073-232100-
NORTHEAST WISCONSIN

CITY           SKY/WX    TMP DP  RH WIND       PRES   REMARKS
IRON MOUNTAIN  LGT RAIN  45  42  89 S6        30.03F
MARINETTE      CLOUDY    52  43  71 SW9       30.06S
OCONTO         CLOUDY    50  46  85 CALM      30.06F
$$

WIZ017-030-035>037-045-232100-
CENTRAL WISCONSIN

CITY           SKY/WX    TMP DP  RH WIND       PRES   REMARKS
MEDFORD        CLOUDY    45  45  97 S7        30.02S FOG
WAUSAU         CLOUDY    46  44  93 S7        30.01F FOG
MOSINEE        LGT RAIN  45  45 100 S6        30.03F FOG
MARSHFIELD     LGT RAIN  47  46  97 S6        30.02F FOG
WISC RAPIDS    CLOUDY    47  46  97 S7        30.04F
STEVENS POINT  CLOUDY    44  43  97 S3        30.03F FOG
WAUPACA        RAIN      48  47  96 S5        30.06S
SHAWANO        DRIZZLE   49  46  91 S3        30.05F
CLINTONVILLE   RAIN      46  45  93 S5        30.05F
$$

WIZ038-039-048-051-232100-
FOX VALLEY

CITY           SKY/WX    TMP DP  RH WIND       PRES   REMARKS
NWS GREEN BAY  LGT RAIN  52  46  80 SW3       30.06F
APPLETON       LGT RAIN  48  45  87 S6        30.05F FOG
OSHKOSH        LGT RAIN  50  47  89 W3        30.05F
FOND DU LAC    LGT RAIN  53  46  77 S5        30.04F
$$

WIZ022-050-052-232100-
EAST CENTRAL WISCONSIN

CITY           SKY/WX    TMP DP  RH WIND       PRES   REMARKS
STURGEON BAY   CLOUDY    52  43  71 SE9       30.07F
MANITOWOC      CLOUDY    52  45  77 S12       30.08F
SHEBOYGAN      CLOUDY    52  43  71 SE9       30.07F
$$

LMZ563-521-522-541>543-232100-
LAKESHORE

STATION/POSITION TIME  TEMP    WIND        PRES    VSBY  WAVE
                       AIR SEA DIR/SP/G                  HT/PER
                 (UTC) (F)     (DEG/KT/KT) (MB)    (MI)  (FT/S)
SHEBOYGAN LKSHOR 2000   51 50  140/ 13/ 14 1018.5F
KEWAUNEE LKSHORE 2000   50     170/ 13/ 15 1017.6F
NORTHPORT PIER   2000   52     160/  7/ 14 1018.3F
N MID LAKE BUOY  2000   50 51  200/ 17/ 19 1018.9F         3/ 5
SISTER BAY LKSHO 1900          170/ 15/ 18   N/A
CHAMBERS ISLAND  2000   54     160/  5/  9 1018.3F
MENOMINEE LKSHOR 2000   53     220/  8/ 11 1018.6F
$$



USA.gov is the U.S. government's official web portal to all federal, state and local government web resources and services.